Tracking 19720 objects as of 26-Jun-2019
HD Live streaming from Space Station
objects crossing your sky now

WESTFORD NEEDLES

Track WESTFORD NEEDLES now!
10-day predictions
WESTFORD NEEDLES is classified as:


NORAD ID: 20023
Int'l Code: 1963-014EZ
Perigee: 496.4 km
Apogee: 6,251.8 km
Inclination: 84.0 °
Period: 159.6 minutes
Semi major axis: 9745 km
RCS: 0.014 m2 (small)
Launch date: May 9, 1963
Source: United States (US)
Launch site: AIR FORCE WESTERN TEST RANGE (AFWTR)
aabbcc
Your satellite tracking list
Your tracking list is empty




NASA's NSSDC Master Catalog

Two Line Element Set (TLE):
1 20023U 63014EZ  19175.30649966  .00003012  00000-0  17856-2 0  9992
2 20023  83.9692 290.9249 2952961 333.3155  14.1602  9.02453319785828
Source of the keplerian elements: AFSPC